Location: Lake Arresoe
(56.0000°N, 12.5000°E)
Time: 09:25:18
(UTC+02:00)

Cosmos 1674 - Pass Details

Date: 03 August 2021
Orbit: 491 x 516 km, 82.5° (Epoch: 26 September)

Event Time Altitude Azimuth Distance (km) Brightness Sun altitude
Rises 01:33:11 0° 358° (N) 2,657 8.1 -16.4°
Reaches altitude 10° 01:36:09 10° 23° (NNE) 1,763 6.6 -16.4°
Maximum altitude 01:38:24 15° 58° (ENE) 1,478 5.5 -16.4°
Drops below altitude 10° 01:40:38 10° 94° (E) 1,752 5.4 -16.3°
Enters shadow 01:43:05 - 116° (ESE) 2,469 6.0 -16.3°
